Location: ShareBrained
(45.5589°N, 122.6491°W)
Time: 16:06:19
(UTC-08:00)

NOAA 19 - Pass Details

Date: 25 January 2020
Orbit: 840 x 861 km, 99.2° (Epoch: 26 February)

Event Time Altitude Azimuth Distance (km) Brightness Sun altitude
Rises 06:15:40 0° 14° (NNE) 3,408 8.4 -14.7°
Reaches altitude 10° 06:18:02 10° 14° (NNE) 2,468 7.6 -14.3°
Maximum altitude 06:23:31 85° 286° (WNW) 851 5.1 -13.3°
Drops below altitude 10° 06:28:58 10° 199° (SSW) 2,454 7.6 -12.4°
Sets 06:31:18 0° 199° (SSW) 3,386 8.3 -12.0°
